EST,Max TemperatureF,Mean TemperatureF,Min TemperatureF,Max Dew PointF,MeanDew PointF,Min DewpointF,Max Humidity, Mean Humidity, Min Humidity, Max Sea Level PressureIn, Mean Sea Level PressureIn, Min Sea Level PressureIn, Max VisibilityMiles, Mean VisibilityMiles, Min VisibilityMiles, Max Wind SpeedMPH, Mean Wind SpeedMPH, Max Gust SpeedMPH,PrecipitationIn, CloudCover, Events, WindDirDegrees
2012-2-1,45,36,27,37,29,25,100,81,62,30.02,29.88,29.76,10,3,0,15,2,22,0.01,6,Fog-Rain,302
2012-2-2,40,34,27,30,24,17,76,65,54,30.22,30.06,29.94,10,10,10,14,8,20,0.00,8,,325
2012-2-3,35,27,18,20,14,9,75,55,35,30.39,30.31,30.23,10,10,10,18,8,24,0.00,3,,308
2012-2-4,36,28,20,25,15,7,88,62,35,30.23,30.18,30.13,10,10,10,22,7,28,0.00,4,,326
2012-2-5,35,23,10,13,9,6,80,55,29,30.18,30.11,30.05,10,10,10,13,4,17,0.00,0,,306
2012-2-6,49,33,16,23,18,12,84,58,31,30.04,29.89,29.79,10,10,10,16,6,25,0.00,0,,235
2012-2-7,42,31,20,25,19,7,81,63,45,30.27,30.03,29.87,10,10,10,16,8,22,0.00,5,,329
2012-2-8,37,24,10,13,7,3,83,54,25,30.30,30.20,30.06,10,10,10,10,3,14,0.00,1,,210
2012-2-9,44,32,20,19,14,11,84,56,27,30.08,30.02,29.96,10,10,10,15,4,21,0.00,2,,284
2012-2-10,49,32,15,21,17,13,92,58,23,30.10,29.99,29.87,10,10,10,15,3,20,0.00,1,,201
2012-2-11,39,29,19,25,19,8,72,62,52,29.86,29.70,29.57,10,10,10,22,7,28,0.00,5,,336
2012-2-12,21,15,9,5,-3,-6,69,52,35,29.88,29.73,29.63,10,10,10,24,13,32,0.00,1,,312
2012-2-13,39,23,6,17,10,-2,73,53,32,29.96,29.84,29.77,10,10,10,26,7,33,0.00,3,,219
2012-2-14,40,27,13,22,17,11,92,65,37,30.10,30.06,29.97,10,10,10,10,1,14,0.00,5,,201
2012-2-15,41,35,28,30,25,20,92,70,48,30.25,30.17,30.10,10,10,7,6,0,9,0.00,8,,285
2012-2-16,45,33,21,36,27,19,100,75,49,30.29,30.18,30.02,10,6,2,12,2,14,0.06,3,Rain,168
2012-2-17,49,37,24,38,30,18,100,71,42,29.99,29.91,29.84,10,6,2,17,7,23,0.01,6,Rain,197
2012-2-18,44,34,23,24,20,17,78,57,36,29.96,29.90,29.83,10,10,10,18,8,25,0.00,3,,282
2012-2-19,40,32,24,22,16,13,78,58,37,30.08,30.03,29.98,10,10,10,16,8,23,0.00,0,,324
2012-2-20,38,31,23,16,11,5,65,46,27,30.30,30.14,30.01,10,10,10,26,11,36,0.00,0,,324
2012-2-21,41,27,13,31,22,10,96,67,37,30.33,30.08,29.86,10,7,2,17,4,23,0.02,4,Snow,154
2012-2-22,52,40,27,36,28,19,100,65,29,29.83,29.68,29.51,10,5,0,21,5,31,0.00,4,Fog,182
2012-2-23,48,38,28,40,30,21,100,73,45,29.78,29.49,29.36,10,8,2,24,6,31,0.06,4,Rain,279
2012-2-24,36,31,26,34,30,22,100,85,69,29.79,29.53,29.20,10,5,1,16,2,20,1.04,7,Rain-Snow,14
2012-2-25,39,33,26,32,25,14,100,74,48,29.79,29.34,29.16,10,10,2,29,15,41,T,6,Snow,272
2012-2-26,36,28,20,14,4,0,62,44,25,30.44,30.22,29.83,10,10,10,25,12,39,0.00,0,,313
2012-2-27,41,28,14,24,17,8,88,65,41,30.45,30.25,30.04,10,10,10,12,2,16,T,5,,135
2012-2-28,40,32,24,26,18,11,84,60,35,30.40,30.26,30.03,10,10,10,24,10,33,T,3,,312
2012-2-29,31,27,23,27,24,15,92,75,58,30.39,30.19,30.00,10,4,0,10,2,15,0.18,8,Fog-Snow,71